C6066 KNTU-KPIE

Flight info

Callsign C6066
Flight time N/A
Altitude 1000
Route KNTU DCT NEWRO DCT WINAL V472 ZAGGY T303 ISO V1 CRG DCT UHUCI DCT BLABR DCT KPIE
Aircraft H60/L-G/C

Departure

Time 2026-04-19 15:24
Airport Oceana Naval Air Station (KNTU)

Arrival

Time N/A
Airport St. Petersburg Clearwater International Airport (KPIE)
Time Latitude Longitude Altitude Speed Heading
2026-04-19 14:50 36.81383 -76.03549 22 ft 0 kts 133°
2026-04-19 15:17 36.81389 -76.03542 17 ft 5 kts 16°
2026-04-19 15:17 36.81437 -76.03582 22 ft 9 kts 316°
2026-04-19 15:17 36.81503 -76.03549 22 ft 17 kts 44°
2026-04-19 15:17 36.81603 -76.03447 24 ft 16 kts 38°
2026-04-19 15:18 36.81684 -76.03377 25 ft 14 kts 342°
2026-04-19 15:18 36.81796 -76.03364 24 ft 20 kts 38°
2026-04-19 15:18 36.81885 -76.03266 26 ft 15 kts 42°
2026-04-19 15:18 36.81960 -76.03180 23 ft 16 kts 43°
2026-04-19 15:19 36.82050 -76.03076 23 ft 19 kts 43°
2026-04-19 15:19 36.82160 -76.02950 19 ft 24 kts 42°
2026-04-19 15:19 36.82299 -76.02795 22 ft 29 kts 42°
2026-04-19 15:19 36.82447 -76.02630 23 ft 26 kts 42°
2026-04-19 15:20 36.82563 -76.02501 28 ft 19 kts 40°
2026-04-19 15:20 36.82656 -76.02396 23 ft 17 kts 43°
2026-04-19 15:20 36.82751 -76.02286 23 ft 21 kts 43°
2026-04-19 15:20 36.82869 -76.02175 20 ft 19 kts
2026-04-19 15:21 36.82931 -76.02223 21 ft 0 kts 315°
2026-04-19 15:22 36.82939 -76.02238 37 ft 2 kts 315°
2026-04-19 15:22 36.82944 -76.02245 40 ft 1 kts 315°
2026-04-19 15:23 36.82944 -76.02285 61 ft 13 kts 229°
2026-04-19 15:23 36.82667 -76.02613 86 ft 107 kts 227°
2026-04-19 15:23 36.81947 -76.03414 68 ft 158 kts 221°
2026-04-19 15:23 36.81089 -76.04306 169 ft 157 kts 212°
2026-04-19 15:24 36.80082 -76.04805 465 ft 158 kts 200°
2026-04-19 15:24 36.79029 -76.05268 477 ft 159 kts 203°
2026-04-19 15:24 36.78061 -76.05701 810 ft 140 kts 206°
2026-04-19 15:24 36.77071 -76.06106 919 ft 163 kts 204°
2026-04-19 15:25 36.75928 -76.06588 675 ft 168 kts 205°
2026-04-19 15:25 36.74862 -76.07008 1040 ft 161 kts 204°
2026-04-19 15:25 36.73677 -76.07205 956 ft 181 kts 191°
2026-04-19 15:25 36.72417 -76.07405 763 ft 181 kts 189°
2026-04-19 15:26 36.71226 -76.07701 684 ft 169 kts 195°
2026-04-19 15:26 36.70101 -76.07997 729 ft 161 kts 195°
2026-04-19 15:26 36.69016 -76.08276 747 ft 157 kts 195°
2026-04-19 15:26 36.67950 -76.08527 757 ft 156 kts 195°
2026-04-19 15:27 36.66883 -76.08782 758 ft 155 kts 195°
2026-04-19 15:27 36.65824 -76.09032 760 ft 155 kts 195°
2026-04-19 15:27 36.64780 -76.09283 758 ft 154 kts 195°
2026-04-19 15:27 36.63736 -76.09529 767 ft 153 kts 195°
2026-04-19 15:28 36.63030 -76.09722 757 ft 153 kts 195°
2026-04-19 15:28 36.61995 -76.10018 766 ft 152 kts 195°
2026-04-19 15:28 36.60951 -76.10264 762 ft 153 kts 195°
2026-04-19 15:28 36.59909 -76.10530 767 ft 153 kts 195°
2026-04-19 15:29 36.58856 -76.10784 763 ft 156 kts 195°
2026-04-19 15:29 36.57797 -76.11057 755 ft 154 kts 195°
2026-04-19 15:29 36.56754 -76.11332 758 ft 153 kts 195°
2026-04-19 15:29 36.55722 -76.11578 717 ft 149 kts 195°
2026-04-19 15:30 36.54727 -76.11815 737 ft 143 kts 195°
2026-04-19 15:30 36.53749 -76.12018 740 ft 142 kts 195°
2026-04-19 15:30 36.52774 -76.12207 734 ft 142 kts 195°
2026-04-19 15:30 36.51804 -76.12416 739 ft 142 kts 195°
2026-04-19 15:31 36.50820 -76.12579 726 ft 149 kts 195°
2026-04-19 15:31 36.49707 -76.12825 725 ft 173 kts 195°
2026-04-19 15:31 36.48581 -76.13086 723 ft 169 kts 195°
2026-04-19 15:31 36.47437 -76.13356 729 ft 167 kts 195°
2026-04-19 15:32 36.46303 -76.13638 733 ft 164 kts 195°
2026-04-19 15:32 36.45136 -76.13896 730 ft 171 kts 195°
2026-04-19 15:32 36.43992 -76.14147 734 ft 170 kts 195°
2026-04-19 15:32 36.42813 -76.14405 729 ft 172 kts 195°
2026-04-19 15:33 36.41680 -76.14652 722 ft 157 kts 195°
2026-04-19 15:33 36.40603 -76.14867 727 ft 157 kts 195°
2026-04-19 15:33 36.39532 -76.15075 727 ft 154 kts 195°
2026-04-19 15:33 36.81383 -76.03549 24 ft 0 kts 133°